Theta_e
321 321 321 321 320 319 319 319 319 319 319 318 317 317 316 316 316 317 317 317 316 316 318 319 321 323 318 306 305 315 350 352 337 319 316 315 315 317 313 314 316 318 322 324 328 327 327
320 320 321 320 320 319 319 318 319 318 318 317 317 316 316 316 316 316 316 316 316 316 318 319 321 324 312 300 313 317 317 324 322 318 317 317 317 319 315 314 314 319 319 319 322 324 325
321 320 320 320 319 319 319 318 318 318 318 317 316 315 316 315 316 316 315 315 315 316 319 320 322 323 310 305 317 316 317 321 321 319 317 318 319 317 317 315 319 317 317 319 321 324 322
321 320 320 319 318 318 319 318 318 318 317 317 316 315 315 315 315 315 314 314 314 317 319 321 323 320 304 311 315 315 317 317 321 321 320 321 320 318 316 318 316 316 317 312 318 323 323
319 319 319 318 319 319 318 318 318 318 317 317 316 315 314 314 313 313 313 314 316 318 320 321 317 311 303 319 311 315 317 315 319 322 323 322 320 315 315 312 314 312 307 308 310 323 322
319 318 318 318 319 318 318 318 318 318 317 317 315 314 314 313 312 313 312 314 315 318 320 321 320 310 309 308 313 313 316 317 316 319 317 317 315 313 312 311 306 305 304 306 306 316 323
319 318 319 318 318 318 318 318 318 318 317 316 315 314 314 313 312 312 312 312 308 308 314 305 304 304 311 315 316 312 315 316 316 315 312 311 311 308 307 309 309 307 306 305 309 318 318
319 318 318 318 318 318 317 317 317 317 317 315 315 314 313 312 311 312 311 307 308 311 308 310 308 308 311 313 308 311 316 312 311 310 310 311 309 311 310 309 308 307 305 306 313 318 317
319 318 318 318 318 317 317 317 317 317 316 316 315 314 312 312 311 310 308 311 316 314 308 309 310 307 308 311 307 309 314 312 310 308 308 309 309 310 309 308 306 308 306 306 308 315 317
319 318 317 317 317 317 317 316 316 316 315 315 314 313 312 310 307 309 309 314 317 315 305 305 308 311 310 310 307 313 314 313 308 309 308 308 310 309 309 307 308 305 310 308 311 312 308
319 318 317 317 317 317 316 316 316 316 315 314 314 313 312 310 307 308 311 316 313 311 294 307 308 314 309 308 308 308 312 312 308 307 309 308 307 307 306 307 309 307 315 311 312 311 311
318 318 317 317 317 317 316 316 316 315 315 314 313 312 311 308 307 311 314 315 312 302 295 305 307 306 305 306 306 308 310 313 312 308 308 309 311 309 309 310 311 312 311 311 311 310 304
318 318 318 317 317 316 316 316 315 315 314 313 311 310 310 311 309 314 314 312 303 296 306 302 303 305 305 304 304 306 305 305 304 301 302 306 308 311 311 308 309 310 309 303 301 302 302
318 317 317 317 316 316 316 315 314 314 313 311 309 308 310 310 313 313 312 308 297 300 303 309 302 304 302 304 304 304 303 302 305 306 303 301 301 308 311 311 308 307 308 303 296 300 304
318 317 317 317 317 316 316 315 314 313 312 310 307 308 307 311 312 312 311 301 300 303 309 307 302 302 301 302 304 303 303 302 306 307 302 302 302 308 309 311 312 306 305 309 306 306 305
318 317 317 317 316 316 315 315 315 313 311 309 309 311 313 312 313 313 309 298 304 307 310 312 301 302 300 301 302 302 302 306 305 308 311 306 302 307 309 311 312 310 312 305 308 300 298
317 317 317 317 316 316 316 316 314 312 310 309 313 312 312 313 313 313 303 304 307 311 312 308 308 303 302 302 303 302 302 305 309 307 309 308 305 306 307 309 308 307 308 307 310 308 302
316 316 316 316 316 316 316 315 313 311 309 308 314 306 313 314 310 307 307 308 305 310 312 311 310 310 306 308 304 303 304 307 309 308 304 309 306 302 305 309 312 311 310 311 305 304 309
317 316 316 316 315 316 316 315 313 311 309 308 313 310 314 313 305 307 308 308 309 309 311 311 310 311 311 310 307 305 305 309 308 308 307 308 304 300 303 310 311 310 311 311 311 311 309
317 317 317 315 315 315 316 314 312 311 310 311 319 306 312 313 309 309 308 310 308 312 311 313 312 313 312 312 311 309 309 314 309 310 322 313 306 305 302 308 311 309 310 311 312 308 309
317 316 315 316 315 315 316 314 313 311 309 311 316 313 311 306 309 310 310 310 310 310 314 314 313 312 312 311 311 311 312 312 313 320 311 311 305 306 307 308 309 310 310 310 310 311 309
317 316 316 315 315 315 316 315 314 311 309 313 310 311 311 308 308 312 307 309 308 311 312 311 312 314 315 313 313 311 313 312 311 312 309 310 307 309 306 309 310 309 309 311 311 310 310
316 316 315 315 315 315 315 315 314 311 309 309 309 311 309 305 309 311 310 309 310 313 315 316 315 314 313 316 318 319 321 318 316 312 311 309 307 307 304 304 307 304 309 310 311 317 314
315 315 315 315 315 315 315 315 315 313 311 308 307 308 310 308 310 310 308 309 311 313 311 315 315 316 318 321 320 320 318 317 317 315 316 312 309 307 304 305 298 308 316 315 313 314 318
314 315 314 314 315 315 315 315 316 314 312 310 309 309 308 306 308 309 309 310 313 314 312 313 314 315 321 316 314 312 310 312 312 311 311 316 310 306 303 303 304 308 312 311 314 314 318
314 314 314 314 314 315 315 315 316 315 312 310 309 310 310 307 308 308 307 309 309 311 315 314 317 319 317 314 312 305 304 307 306 309 311 310 310 309 302 300 298 309 312 315 319 309 317
313 313 313 314 314 314 315 315 315 315 313 311 309 310 311 307 310 309 307 307 310 310 311 312 312 313 314 312 308 307 306 309 304 305 306 308 308 305 303 302 304 311 315 316 309 310 317
313 313 313 313 314 314 314 315 315 314 314 311 310 311 310 308 309 310 311 310 310 310 308 311 314 312 313 309 307 306 307 308 307 307 307 308 306 304 303 302 299 315 314 311 317 319 318
313 312 313 313 313 313 314 314 315 315 314 311 308 310 312 308 310 312 315 316 315 314 311 311 312 311 315 312 310 310 309 308 307 304 310 306 309 309 308 309 313 316 315 318 319 320 320
Wind_Speed
18 18 17 17 17 16 16 17 17 16 15 15 15 15 13 12 10 9 7 7 7 7 7 8 9 9 3 2 8 4 7 6 11 10 8 5 2 1 3 3 3 4 5 3 7 8 7
18 18 17 17 17 18 17 17 17 17 16 15 15 15 14 13 10 9 7 7 6 7 7 7 8 8 2 4 2 4 5 2 6 6 6 5 1 2 2 3 2 3 8 10 4 5 0
16 17 18 17 18 17 17 18 18 17 17 15 15 15 14 13 11 9 6 6 6 7 7 6 6 3 2 10 4 6 5 2 5 4 4 3 2 3 5 5 4 5 6 4 5 7 2
17 17 18 17 19 18 17 18 18 17 17 15 15 15 15 13 12 9 6 5 6 7 6 5 3 2 8 2 3 8 3 3 3 2 2 3 0 2 2 6 3 3 2 4 5 10 3
19 18 18 19 17 17 17 17 17 16 16 15 14 15 15 15 12 8 5 6 7 6 4 3 2 2 7 6 4 4 6 4 6 3 2 3 1 2 0 2 2 6 4 5 5 9 2
20 20 20 19 18 17 17 17 18 16 15 14 14 15 16 15 13 7 6 6 2 2 2 4 3 4 5 2 1 2 4 4 3 6 5 2 2 1 1 3 0 3 4 5 7 6 10
20 20 20 19 18 18 18 18 18 16 16 14 14 15 15 14 12 4 3 4 5 3 3 6 2 3 3 6 4 3 4 6 3 2 6 2 5 5 2 2 2 3 4 7 4 4 4
20 20 20 19 18 18 18 18 18 16 16 16 13 15 15 12 8 2 1 4 1 3 3 9 5 7 5 4 2 3 6 6 4 8 4 4 10 2 2 2 4 5 5 4 1 3 2
19 19 19 19 19 19 18 18 18 15 16 14 13 14 15 10 4 1 3 5 3 2 2 2 5 5 5 7 3 7 8 5 4 6 5 7 1 7 3 5 7 8 8 5 3 5 8
18 19 20 20 20 19 19 19 18 17 16 14 14 14 13 8 3 2 5 1 4 4 2 4 4 4 6 5 4 4 6 6 2 9 6 3 1 7 7 6 5 7 4 6 6 8 2
19 20 20 20 20 20 19 19 18 17 16 15 14 12 9 3 2 4 2 5 4 4 3 5 4 2 2 6 8 8 2 3 8 6 6 6 4 6 3 3 5 3 5 4 4 4 5
20 20 20 20 20 21 20 19 19 18 16 16 15 13 6 3 4 6 5 4 3 4 3 5 5 7 7 4 3 6 7 4 2 4 1 6 1 4 3 5 9 4 2 5 4 2 4
20 20 21 22 21 21 21 20 20 18 18 17 17 11 7 5 1 2 3 4 4 4 0 6 5 8 10 7 5 9 14 13 9 9 9 5 12 7 5 8 3 7 6 2 3 4 1
21 21 22 22 21 22 21 22 24 22 20 19 15 3 7 5 2 5 4 3 4 1 3 2 4 9 10 7 3 7 13 14 4 6 5 9 9 9 8 11 3 7 5 3 3 2 2
22 22 22 22 23 23 23 24 22 23 22 19 5 2 4 4 9 3 3 4 2 3 2 2 5 8 6 4 4 7 14 16 15 10 4 7 6 2 7 3 4 6 5 3 7 1 4
21 23 23 23 24 24 25 24 24 26 25 16 3 3 3 3 9 3 2 2 2 3 3 1 5 4 9 12 7 8 12 13 12 13 12 2 4 2 3 4 6 3 9 5 1 3 3
22 22 23 23 24 25 26 25 25 28 27 3 2 2 6 2 4 2 5 3 4 5 4 2 0 5 4 10 8 8 11 5 22 17 12 8 3 3 3 4 6 6 5 4 4 3 3
24 24 23 25 25 26 27 26 25 27 26 0 1 4 3 3 3 1 3 3 2 3 3 6 3 3 5 8 9 10 14 8 14 16 13 11 3 5 7 0 3 3 5 9 6 5 0
22 23 25 24 26 27 26 27 27 26 21 4 3 3 3 4 3 2 1 3 4 3 3 2 3 4 2 5 6 8 6 2 14 15 18 11 5 4 3 4 3 7 5 3 6 3 7
22 22 23 25 27 28 26 28 28 27 22 2 1 4 3 1 1 1 1 2 4 4 6 4 4 3 3 5 4 4 6 2 10 9 7 17 6 8 6 3 1 6 9 10 7 5 7
21 24 24 25 26 28 26 28 31 29 23 2 3 2 3 4 3 2 1 2 4 4 4 5 3 8 6 4 3 5 4 5 4 9 5 9 10 7 2 2 3 3 9 12 8 6 8
20 21 22 24 25 27 26 25 26 30 24 3 3 2 2 2 1 2 2 2 3 5 3 2 5 3 8 4 3 5 2 1 2 5 7 3 4 4 1 2 3 4 4 7 7 4 9
21 21 23 24 25 25 25 23 23 25 17 4 3 0 3 1 1 2 1 3 2 7 6 3 6 2 5 3 3 10 8 4 3 5 4 3 5 4 6 1 8 4 6 6 4 4 4
22 21 22 23 23 24 23 24 21 19 14 2 2 2 2 1 1 1 3 4 5 5 4 6 7 1 3 5 3 5 6 6 8 5 4 6 4 1 4 4 7 4 3 2 5 5 7
21 21 22 23 22 22 23 22 19 16 16 2 1 2 2 1 2 2 6 3 4 2 2 3 7 4 3 4 2 5 2 2 2 5 10 2 5 3 1 3 4 4 7 6 6 5 8
21 20 21 22 22 22 22 21 19 16 13 2 1 1 2 3 2 4 4 3 3 4 3 4 3 2 1 1 2 4 5 4 5 4 5 6 4 2 3 4 5 1 3 3 5 6 9
21 20 20 21 22 22 22 21 20 17 14 4 1 1 2 2 0 3 3 3 2 0 2 4 5 4 2 1 2 1 2 1 3 4 1 3 3 6 4 6 4 4 7 3 6 3 11
20 19 20 22 21 22 21 20 19 18 15 6 2 1 3 2 5 3 2 2 3 1 2 5 3 2 2 3 0 2 2 2 2 1 2 5 5 5 3 5 9 7 6 7 2 8 14
19 21 21 20 22 21 21 20 19 15 11 4 2 1 2 4 4 3 8 11 8 9 4 2 2 1 1 1 1 0 1 1 1 3 2 4 3 1 5 3 2 4 4 4 5 10 14
Wind_Direction
13 9 7 7 5 3 1 359 358 358 355 352 352 351 349 341 329 316 303 292 290 293 297 305 309 321 293 205 253 343 16 122 145 166 203 205 265 264 346 322 291 217 288 291 240 268 229
9 7 4 3 3 1 359 357 356 354 354 352 350 350 347 344 332 317 300 288 284 285 295 301 311 319 237 237 129 93 24 137 156 176 171 190 243 272 271 275 262 279 286 285 310 352 202
8 3 2 1 0 359 356 355 353 352 351 350 348 347 346 344 338 324 307 286 279 281 294 297 306 291 228 242 134 314 310 195 181 190 163 186 254 295 338 315 351 307 311 348 42 2 29
6 4 1 0 360 358 354 352 350 349 348 348 347 345 345 345 340 331 305 284 274 283 285 281 282 243 253 228 302 280 209 173 194 196 173 172 225 290 266 311 330 10 27 6 39 356 39
4 3 2 360 357 353 350 349 346 344 344 347 346 344 343 343 340 324 303 290 283 275 255 257 208 259 262 315 236 232 197 173 155 176 229 127 51 19 289 350 60 26 347 346 349 33 319
3 1 -0 358 353 349 348 348 346 341 345 346 345 342 341 340 337 321 299 281 287 280 199 196 252 264 246 135 283 159 185 172 160 134 127 162 82 232 81 349 241 3 336 339 321 6 51
1 359 355 353 349 347 346 345 344 341 344 344 341 337 337 339 335 321 330 146 161 154 222 211 185 271 321 316 252 193 167 154 121 142 177 71 218 231 51 73 68 290 286 318 313 44 80
358 354 350 348 346 344 344 343 340 340 342 341 336 335 337 343 332 307 250 231 60 7 252 225 250 276 258 292 106 138 170 165 177 176 142 176 242 222 155 70 283 255 301 293 234 360 81
355 350 347 346 344 343 341 338 339 338 340 339 333 336 338 343 338 223 229 240 104 315 259 184 194 231 237 186 183 177 181 140 150 155 145 198 31 67 27 311 285 278 268 240 260 111 78
351 350 348 346 342 342 341 337 336 338 339 333 332 334 334 347 267 153 234 183 274 243 322 160 202 239 164 194 188 192 183 163 127 185 146 203 192 245 269 275 252 293 305 255 182 192 153
351 350 345 341 342 341 338 333 335 336 334 328 327 317 310 313 333 212 53 335 130 208 192 138 152 124 140 200 131 181 182 112 172 145 193 186 201 163 228 240 180 301 30 117 183 136 170
350 346 343 341 343 340 336 332 334 335 327 323 317 306 285 204 221 254 312 302 205 219 177 146 131 160 166 198 132 128 170 117 120 142 107 228 166 263 228 194 220 239 174 94 101 139 221
350 347 342 343 341 339 336 335 337 332 327 323 312 288 208 176 181 351 279 183 185 232 50 156 158 167 177 165 131 173 178 184 190 190 210 221 248 249 210 262 167 187 187 179 193 211 359
352 348 345 343 341 340 340 342 343 336 331 325 319 305 203 219 300 325 194 193 208 169 236 113 132 152 189 155 164 155 162 181 171 167 180 210 214 194 171 223 213 183 224 207 236 246 45
350 346 345 344 344 340 340 341 338 335 333 326 326 126 133 255 223 279 203 201 243 200 327 116 128 158 181 186 171 165 192 196 191 198 198 172 234 210 217 182 221 136 205 69 112 94 252
348 347 346 343 343 340 342 342 341 341 338 333 176 171 50 24 164 232 206 246 253 237 317 203 205 186 176 177 168 190 180 194 197 201 218 151 247 180 101 149 64 276 132 172 167 216 255
348 345 344 345 343 342 345 346 345 346 344 7 194 108 18 141 185 200 207 237 269 254 250 315 166 167 173 173 184 183 193 199 200 189 197 179 244 120 261 200 183 149 183 76 108 313 273
348 349 347 347 343 344 348 348 349 349 346 48 302 91 123 221 194 0 199 220 293 276 257 275 244 239 162 155 190 206 202 235 183 158 181 195 192 253 264 165 304 242 225 186 226 188 118
344 347 349 345 346 346 349 350 351 351 355 318 73 101 129 285 206 155 264 267 263 255 246 235 245 229 176 185 205 207 197 211 159 167 169 171 214 241 248 155 165 203 179 145 120 134 193
343 344 344 347 347 349 350 352 352 350 352 242 147 130 140 169 349 86 35 271 265 236 245 247 281 182 152 211 198 205 223 128 185 195 155 165 163 206 217 68 47 175 177 173 204 188 162
342 345 347 348 348 350 351 354 354 350 352 267 10 76 353 174 189 214 241 296 281 287 215 199 263 228 193 185 201 217 183 136 93 143 126 182 203 200 270 278 219 195 182 177 195 156 219
342 343 345 347 349 351 352 355 356 354 345 73 13 359 358 82 358 190 158 212 286 321 260 176 241 288 205 192 232 157 103 226 158 155 156 172 165 158 133 187 206 154 122 198 227 214 252
342 343 345 347 349 351 354 357 1 5 357 38 17 294 289 64 99 207 134 311 264 336 229 288 293 206 135 98 159 97 98 68 52 154 111 112 142 176 171 222 162 194 203 184 190 225 254
342 342 345 346 348 350 353 357 0 10 20 336 28 289 335 109 270 54 292 305 300 313 294 352 5 55 71 110 130 108 28 99 89 58 178 130 103 333 128 183 211 44 13 285 261 271 249
342 342 344 345 346 348 351 355 357 3 7 335 352 317 356 297 318 261 332 341 319 328 163 353 4 3 272 347 73 56 339 341 73 23 303 106 120 93 272 260 339 166 223 189 199 272 219
342 341 342 344 345 346 349 351 354 357 1 356 319 307 315 307 115 320 334 350 10 338 329 107 346 305 127 31 105 159 174 170 185 214 39 74 64 181 148 213 259 144 186 198 202 283 178
340 340 340 340 342 344 345 348 351 354 356 355 303 287 282 306 260 304 12 341 348 339 312 325 352 356 350 156 76 145 156 270 179 194 186 150 155 204 216 247 279 242 145 162 204 285 163
339 339 337 338 338 338 340 343 346 350 353 354 327 276 328 306 283 238 281 333 335 14 24 354 259 43 30 65 189 140 215 118 263 85 184 188 185 202 149 218 255 150 137 216 47 136 148
340 338 336 333 333 334 334 336 341 342 345 9 287 59 330 243 302 294 278 280 271 274 294 355 39 180 40 61 103 194 234 184 356 250 135 207 285 265 225 207 13 285 292 332 189 161 156